Location: Mentone
(34.5413°N, 85.5351°W)
Time: 22:55:45
(UTC-06:00)

UOSAT-12 - Visible Passes

Search period start: 09 December 2016 00:00
Search period end: 19 December 2016 00:00
Orbit: 616 x 638 km, 64.6° (Epoch: 09 December)

Date Brightness Start Highest point End Pass type
(mag) Time Alt. Az. Time Alt. Az. Time Alt. Az.
09 Dec 7.4 04:22:20 64° E 04:22:20 64° E 04:26:29 10° SE visible
09 Dec 7.9 18:24:53 10° S 18:27:58 36° SSE 18:27:58 36° SSE visible
10 Dec 7.7 04:42:34 43° SSW 04:42:34 43° SSW 04:46:06 10° S visible
10 Dec 7.5 18:44:28 10° SW 18:48:11 58° WSW 18:48:11 58° WSW visible
11 Dec 10.2 03:25:30 11° ESE 03:25:30 11° ESE 03:25:41 10° ESE visible
11 Dec 8.9 05:02:52 18° SW 05:02:52 18° SW 05:04:43 10° SSW visible
11 Dec 8.4 17:25:29 10° SSE 17:28:59 23° ESE 17:31:00 17° ENE visible
11 Dec 8.8 19:04:53 10° WSW 19:08:21 30° WNW 19:08:21 30° WNW visible
12 Dec 10.0 03:45:50 11° SSE 03:45:50 11° SSE 03:45:59 10° SSE visible
12 Dec 7.2 17:44:15 10° SSW 17:48:37 56° ESE 17:51:05 25° NE visible
12 Dec 9.8 19:26:25 10° W 19:28:26 15° WNW 19:28:26 15° WNW visible
13 Dec 7.5 18:04:00 10° SW 18:08:26 60° WNW 18:11:05 23° NNE visible
14 Dec 8.9 18:24:38 10° WSW 18:28:26 26° NW 18:31:00 16° N visible
15 Dec 7.1 17:03:39 10° SSW 17:08:05 68° ESE 17:12:36 10° NE visible
15 Dec 9.7 18:46:33 10° WNW 18:48:38 13° NW 18:50:45 10° NNW visible
16 Dec 7.9 17:23:35 10° SW 17:27:56 49° WNW 17:32:20 10° NNE visible
17 Dec 9.2 17:44:25 10° WSW 17:47:59 23° NW 17:51:35 10° N visible
18 Dec 9.8 18:06:56 10° WNW 18:08:14 11° NW 18:09:33 10° NNW visible
